Terminal Aerodrome Forecast
Issued by NWS Bismarck, ND

Home | Current Version | Previous Version | Graphics & Text | Print | Product List | Glossary On
Versions: 1 2 3 4 5 6 7 8 9 10 11 12 13 14 15 16 17 18 19 20 21 22 23 24 25 26 27 28 29
000
FTUS43 KBIS 010154 AAA
TAFISN
TAF AMD
KISN 010154Z 0102/0124 07014G22KT P6SM SCT100
     FM010600 08009KT 5SM FU SCT090
     FM011000 36005KT 6SM BR SCT100
     FM011600 35007KT P6SM BKN050=

USA.gov is the U.S. government's official web portal to all federal, state and local government web resources and services.